Location: Newark
(5.8900°S, 42.6378°W)
Time: 03:20:51
(UTC+00:00)

Vanguard 1 Rocket - Pass Details

Date: 19 October 2019
Orbit: 651 x 4225 km, 34.3° (Epoch: 11 November)

Event Time Altitude Azimuth Distance (km) Brightness Sun altitude
Rises 01:41:37 0° 265° (W) 6,100 11.8 -69.3°
Enters shadow 01:47:47 - 248° (WSW) 4,482 11.1 -70.3°
Reaches altitude 10° 01:49:03 10° 243° (WSW) 4,176 - -70.5°
Maximum altitude 01:53:43 14° 216° (SW) 3,293 - -71.1°
Drops below altitude 10° 01:57:24 10° 187° (S) 3,112 - -71.6°
Sets 02:01:23 0° 159° (SSE) 3,602 - -72.1°
